Chillicothe, MO

3:40 AM CST on November 15, 2019 (GMT -0600)
Chillicothe

Weather History for KCDJ - September, 2019

Change the Weather History Date:

Saturday, September 14, 2019

  Actual Average (WUND) Record (WUND)
Temperature  
Mean Temperature 70 °F -  
Max Temperature 84 °F - - (-1)
Min Temperature 57 °F - - (-1)
Cooling Degree Days 6    
Growing Degree Days 20 (Base 50)    
Moisture  
Dew Point 63 °F    
Average Humidity 74    
Maximum Humidity 100    
Minimum Humidity 45    
Precipitation  
Precipitation 0.00 in - - ()
Sea Level Pressure  
Sea Level Pressure 30.13 in    
Wind  
Wind Speed 3 mph (South)    
Max Wind Speed 13 mph    
Max Gust Speed 25 mph    
Averages and records for this station are not official NWS values.
T = Trace of Precipitation, MM = Missing Value Source: NWS Daily Summary

Daily Weather History Graph

Daily Weather History Graph

Search for Another Location

Airport or City:

Astronomy

Sep. 14, 2019 Rise Set
Actual Time 6:54 AM CDT 7:24 PM CDT
Civil Twilight 6:27 AM CDT 7:52 PM CDT
Nautical Twilight 5:55 AM CDT 8:23 PM CDT
Astronomical Twilight 5:22 AM CDT 8:56 PM CDT
Moon 8:06 PM CDT (9/14) 7:08 AM CDT (9/14)
Length of Visible Light 13h 24m
Length of Day
12h 30m
Full, 100% of the Moon is Illuminated
Sep 14
Full
Sep 21
Last Quarter
Sep 28
New
Oct 5
First Quarter
Oct 13
Full

Hourly Weather History & Observations

Time (CDT) Temp. Heat Index Dew Point Humidity Pressure Visibility Wind Dir Wind Speed Gust Speed Precip Events Conditions
2:52 AM 60.1 °F - 57.9 °F 93% 30.19 in - Calm Calm - N/A   Unknown
3:52 AM 57.9 °F - 57.0 °F 97% 30.19 in - Calm Calm - N/A   Unknown
4:52 AM 57.9 °F - 57.0 °F 97% 30.19 in - Calm Calm - N/A   Unknown
5:52 AM 57.0 °F - 57.0 °F 100% 30.19 in - Calm Calm - N/A   Unknown
6:52 AM 57.9 °F - 57.0 °F 97% 30.19 in - Calm Calm - N/A   Unknown
7:52 AM 60.1 °F - 60.1 °F 100% 30.21 in - Calm Calm - N/A   Unknown
8:52 AM 66.9 °F - 61.0 °F 81% 30.20 in - South 4.6 mph - N/A   Unknown
9:52 AM 71.1 °F - 62.1 °F 73% 30.20 in - South 4.6 mph - N/A   Unknown
10:52 AM 75.9 °F - 60.1 °F 58% 30.18 in - SSE 9.2 mph - N/A   Unknown
11:52 AM 80.1 °F 80.6 °F 57.9 °F 47% 30.16 in - Variable 6.9 mph - N/A   Unknown
12:52 PM 81.0 °F 81.1 °F 57.9 °F 45% 30.14 in - South 12.7 mph 25.3 mph N/A   Unknown
1:52 PM 82.0 °F 82.7 °F 61.0 °F 49% 30.11 in - South 10.4 mph 20.7 mph N/A   Unknown
2:52 PM 82.9 °F 84.6 °F 64.9 °F 54% 30.09 in - SSW 11.5 mph 18.4 mph N/A   Unknown
3:52 PM 84.9 °F 87.6 °F 66.9 °F 55% 30.06 in - South 10.4 mph 18.4 mph N/A   Unknown
4:52 PM 84.9 °F 88.2 °F 68.0 °F 57% 30.05 in - South 6.9 mph 17.3 mph N/A   Unknown
5:52 PM 84.0 °F 87.8 °F 69.1 °F 61% 30.03 in - South 9.2 mph - N/A   Unknown
7:52 PM 78.1 °F - 70.0 °F 76% 30.03 in - South 4.6 mph - N/A   Unknown
8:52 PM 77.0 °F - 70.0 °F 79% 30.04 in - South 4.6 mph - N/A   Unknown
9:52 PM 75.9 °F - 70.0 °F 82% 30.04 in - SSE 3.5 mph - N/A   Unknown
10:52 PM 75.0 °F - 70.0 °F 84% 30.04 in - South 4.6 mph - N/A   Unknown